Regional Weather Roundup
Issued by NWS

Home | Current Version | Previous Version | Text Only | Print | Product List | Glossary On
Versions: 1 2 3 4 5 6 7 8 9 10 11 12 13 14 15 16 17 18 19 20 21 22 23 24 25 26 27 28 29 30 31 32 33 34 35 36 37 38 39 40 41 42 43 44 45 46 47 48 49 50
000
ASUS43 KMKX 231259
RWRWI

WISCONSIN REGIONAL WEATHER ROUNDUP
NATIONAL WEATHER SERVICE MILWAUKEE/SULLIVAN WI
700 AM CST MON JAN 23 2017

NOTE: "FAIR" INDICATES FEW OR NO CLOUDS BELOW 12,000 FEET WITH NO
SIGNIFICANT WEATHER AND/OR OBSTRUCTIONS TO VISIBILITY.

WIZ001-002-006>008-014>016-023>028-231400-
NORTHWEST WISCONSIN

CITY           SKY/WX    TMP DP  RH WIND       PRES   REMARKS
SUPERIOR ARPT  CLOUDY    35  34  99 W3        29.77S
ASHLAND        CLOUDY    34  33  96 W6        29.76S FOG     WCI  29
HAYWARD        CLOUDY    35  34  96 CALM      29.75S FOG
SIREN          CLOUDY    34  33  99 CALM      29.78R FOG
CUMBERLAND     FOG       32  32 100 W5        29.76S VSB 1/4 WCI  27
RICE LAKE      FOG       33  33 100 W3        29.78S VSB 1/4
CHETEK         CLOUDY    33  33 100 CALM      29.77S FOG
LADYSMITH      FOG       35  34  99 W3        29.76S VSB 1/2
EAU CLAIRE     CLOUDY    33  33 100 W5        29.77S FOG     WCI  29
MENOMONIE        N/A    N/A N/A N/A MISG        N/A
NEW RICHMOND   FOG       33  33 100 W5        29.79S VSB 1   WCI  28
OSCEOLA        CLOUDY    33  33 100 W3        29.82R FOG
$$

WIZ003>005-009-010-017-018-231400-
NORTH CENTRAL WISCONSIN

CITY           SKY/WX    TMP DP  RH WIND       PRES   REMARKS
MANITOWISH WTR FOG       32  32 100 CALM      29.72S VSB 1
ARBOR VITAE    FOG       34  33  97 CALM      29.72S VSB 1
WOODRUFF       FOG       34  33  97 CALM      29.72S VSB 1
RHINELANDER    FOG       33  33 100 CALM      29.73R VSB 1/2
EAGLE RIVER    CLOUDY    32  32 100 CALM      29.72S FOG
LAND O LAKES   CLOUDY    33  33 100 CALM      29.73S
PHILLIPS       FOG       32  32 100 CALM      29.73S VSB 1/2
TOMAHAWK       CLOUDY    32  32  99 CALM      29.74R
MEDFORD        FOG       32  32  99 W3        29.74R VSB 1/4
MERRILL        CLOUDY    33  33 100 CALM        N/A
$$

WIZ029-030-035-036-043>047-231400-
CENTRAL WISCONSIN

CITY           SKY/WX    TMP DP  RH WIND       PRES   REMARKS
WAUSAU         CLOUDY    34  33  96 CALM      29.73R
MOSINEE        CLOUDY    34  34 100 CALM      29.75R
MARSHFIELD     FOG       33  32  96 NW3       29.74R VSB 1/2
STEVENS POINT  CLOUDY    32  32 100 CALM      29.75R
WAUPACA        CLOUDY    37  36  96 CALM      29.76R FOG
WAUTOMA        CLOUDY    34  33  96 W5        29.77  WCI  30
WISC RAPIDS    CLOUDY    34  34 100 CALM      29.77R
CAMP DOUGLAS   NOT AVBL
$$

WIZ011>013-019>022-031-037>040-048>050-231400-
NORTHEAST WISCONSIN

CITY           SKY/WX    TMP DP  RH WIND       PRES   REMARKS
ANTIGO         CLOUDY    32  32 100 CALM      29.73R
SHAWANO        CLOUDY    36  34  93 CALM      29.76R
OCONTO         CLOUDY    35  34  98 CALM      29.75R
STURGEON BAY   FOG       35  35 100 N6        29.74S VSB 3/4 WCI  30
GREEN BAY      CLOUDY    37  36  96 NW5       29.75S WCI  33
MANITOWOC      CLOUDY    36  36 100 MISG      29.75R FOG
APPLETON         N/A     36  36 100 NW7       29.74R FOG     WCI  30
CLINTONVILLE   CLOUDY    34  34 100 CALM      29.76R
OSHKOSH        FOG       35  34  96 NW6       29.74S VSB 3/4 WCI  30
$$

WIZ032>034-041-042-053>061-231400-
SOUTHWEST WISCONSIN

CITY           SKY/WX    TMP DP  RH WIND       PRES   REMARKS
LA CROSSE      CLOUDY    37  33  85 CALM      29.80R
SPARTA         CLOUDY    33  33 100 W3        29.79R FOG
VIROQUA        CLOUDY    33  33 100 NW6       29.78R VSB 1/4 WCI  28
BOSCOBEL       CLOUDY    37  35  92 CALM      29.81R
PRAIRIE DU CHI CLOUDY    35  33  91 W3        29.81R
PLATTEVILLE    CLOUDY    35  35 100 NW7       29.79R WCI  29
$$

WIZ056-057-062-063-064-067-068-231400-
SOUTH CENTRAL WISCONSIN

CITY           SKY/WX    TMP DP  RH WIND       PRES   REMARKS
REEDSBURG      CLOUDY    34  34 100 W5        29.77R FOG     WCI  30
BARABOO/DELLS  FOG       34  34  99 N3        29.77R VSB 1
LONE ROCK      NOT AVBL
MINERAL POINT  CLOUDY    36  36 100 NW3       29.77R FOG
MADISON        CLOUDY    35  34  96 CALM      29.77S
MIDDLETON      CLOUDY    36  36 100 CALM      29.77R
WATERTOWN      CLOUDY    34  34 100 NW5       29.75S FOG     WCI  30
MONROE         CLOUDY    36  34  93 N6        29.76R WCI  31
JANESVILLE     CLOUDY    37  37 100 NW7       29.76R WCI  32
$$

WIZ051-052-058>065-066-070>072-231400-
SOUTHEAST WISCONSIN

CITY           SKY/WX    TMP DP  RH WIND       PRES   REMARKS
MILWAUKEE      CLOUDY    39  35  86 NW6       29.75R WCI  35
WAUKESHA       FOG       34  34 100 NW5       29.76R VSB 1/2 WCI  30
MILWAUKEE/TIMM CLOUDY    36  32  87 W5        29.76R WCI  32
RACINE         CLOUDY    37  35  92 NW5       29.76R WCI  33
KENOSHA        CLOUDY    37  35  92 NW6       29.75R FOG     WCI  32
FOND DU LAC    CLOUDY    36  33  89 NW6       29.75R FOG     WCI  31
SHEBOYGAN      CLOUDY    36  35  96 NW6       29.74R FOG     WCI  31
WEST BEND      FOG       34  34 100 NW6       29.75R VSB 3/4 WCI  29
JUNEAU         CLOUDY    34  33  99 NW3       29.76R FOG
$$

LSZ147-162-231400-
LAKE SUPERIOR

STATION/POSITION TIME  TEMP    WIND        PRES    WAVE
                       AIR SEA DIR/SP/G            HT/PER
                 (UTC) (F)     (DEG/KT/KT) (MB)    (FT/S)
DEVILS ISLAND    1200   34     240/  7/  7 1008.2F
PORT WING        1240   35     240/  7/  9 1008.1S
SAXON HARBOR     1230   35     190/  3/  5 1007.5S
$$

LMZ867-665-643>646-231400-
LAKE MICHIGAN

STATION/POSITION TIME  TEMP    WIND        PRES    WAVE
                       AIR SEA DIR/SP/G            HT/PER
                 (UTC) (F)     (DEG/KT/KT) (MB)    (FT/S)
NORTHPORT PIER   1240   34     320/  5/  7 1007.1R
SISTER BAY       1205   34        CALM       N/A
KEWAUNEE LAKESHO 1230   36     340/  2/  6 1006.7R
SHEBOYGAN LAKESH 1200   37     310/  5/  5 1007.2R
PORT WASHINGTON  1240   37     300/  4/  7 1008.5R
KENOSHA   LAKESH 1200   38     330/  6/  8 1007.5
$$

TC  - TEMPERATURE IN CELSIUS
VSB - VISIBILITY IN STATUTE MILES
WCI - WIND CHILL INDEX
HX  - HEAT INDEX





USA.gov is the U.S. government's official web portal to all federal, state and local government web resources and services.